Location: Jalan Sepang
(2.8072°N, 101.8021°E)
Time: 05:13:25
(UTC+00:00)

USA 238 - Pass Details

Date: 15 May 2026
Orbit: 883 x 1328 km, 63.4° (Epoch: 10 January)

Event Time Altitude Azimuth Distance (km) Brightness Sun altitude
Exits shadow 21:00:54 72° 145° (SE) 926 3.3 -29.0°
Maximum altitude 21:01:16 74° 113° (ESE) 915 3.3 -29.0°
Drops below altitude 10° 21:07:08 10° 28° (NNE) 2,569 6.3 -27.6°
Sets 21:09:41 0° 27° (NNE) 3,542 7.1 -27.0°
